Volver al catálogo

STARLINK-30768

ActivoComunicacionesVLEO
NORAD 58120·PAYLOAD·🇺🇸 United States

Lanzado Oct 22, 2023 desde Cape Canaveral Space Force Station

Loading…

Próximos Pases (próximas 24 horas)

TLE

ActualizadoSource: CelesTrak SupGP

Época: Sep 14, 2026, 20:39 UTC

1 58120C 23162C   26257.86090278 -.00029282  00000+0 -10619-2 0  2572
2 58120  43.0017 143.8007 0001316 258.5880  65.0208 15.27552151    19

Sigue STARLINK-30768 en tiempo real con AllMySat

Download on the App Store